Orbital Elements at Epoch 2459200.5 (2020-Dec-17.0) TDB
Reference: JPL 13 (heliocentric ecliptic J2000)
Element | Value | Uncertainty (1-sigma) | Units |
e | .1666486840400656 | 4.3517e-08 | |
a | 2.344618807217346 | 1.4547e-08 | au |
q | 1.953891168418987 | 9.8673e-08 | au |
i | 3.621196056801623 | 5.5811e-06 | deg |
node | 114.4295861966641 | 8.1497e-05 | deg |
peri | 128.2837471332673 | 8.3509e-05 | deg |
M | 204.0335838773104 | 1.7912e-05 | deg |
tp | 2459768.613860971890 (2022-Jul-08.11386097) | 6.6811e-05 | TDB |
period | 1311.314288256748 3.59 | 1.2204e-05 3.341e-08 | d yr |
n | .2745337278972088 | 2.555e-09 | deg/d |
Q | 2.735346446015706 | 1.6971e-08 | au |
|
| | Orbit Determination Parameters
Additional Information
|